Weather Roundup
Issued by NWS

Home | Current Version | Previous Version | Graphics & Text | Print | Product List | Glossary Off
Versions: 1 2 3 4 5 6 7 8 9 10 11 12 13 14 15 16 17 18 19 20 21 22 23 24 25 26 27 28 29 30 31 32 33 34 35 36 37 38 39 40 41 42 43 44 45 46 47 48 49 50

000
NZUS93 KARX 041359
HRRWXR

CURRENT HOURLY OBSERVATIONS ACROSS
MUCH OF THE UPPER MISSISSIPPI VALLEY
NATIONAL WEATHER SERVICE LA CROSSE WI
800 AM CST WED MAR 04 2015


...SOUTHEAST MINNESOTA...


CITY           SKY/WX    TMP DP  RH WIND       PRES   REMARKS
ROCHESTER      SUNNY      0  -8  69 NW12      30.14R WCI -17
ROCHESTER/MAYO FAIR       1  -7  68 W14G21    30.15R WCI -18
WINONA         SUNNY      5  -4  66 NW12      30.20R WCI -11
AUSTIN         SUNNY      1  -6  71 W12       30.17R WCI -15
ALBERT LEA     SUNNY      1  -6  71 W7        30.17R WCI -11
DODGE CENTER   SUNNY      0  -8  71 W12       30.14R WCI -18
PRESTON        MOSUNNY   -1  -8  71 NW14      30.15R WCI -20
OWATONNA       SUNNY      0  -8  71 W7        30.18R WCI -13
FARIBAULT      FAIR       0  -8  71 W5        30.19R WCI -10
$$

...ELSEWHERE IN MINNESOTA...


CITY           SKY/WX    TMP DP  RH WIND       PRES   REMARKS
MINNEAPOLIS    MOSUNNY    1  -8  66 W9        30.19R WCI -14
INTNL FALLS    MOSUNNY  -13 -19  75 W7        30.01R WCI -29
DULUTH         LGT SNOW  -6 -13  71 W13       29.99R WCI -25
RED WING       SUNNY      1  -8  66 W8        30.19R WCI -12
REDWOOD FALLS  MOSUNNY   -2 -10  69 W7        30.20R WCI -15
MANKATO        SUNNY      1  -8  66 W10       30.19R WCI -14
FAIRMONT       MOSUNNY    3  -6  66 W8        30.18R WCI -10
$$

...SOUTHWEST WISCONSIN...


CITY           SKY/WX    TMP DP  RH WIND       PRES   REMARKS
LA CROSSE      SUNNY      6  -5  60 NW8       30.18R WCI  -7
PRAIRIE DU CHI MOSUNNY    7  -5  57 NW12G17   30.18R WCI  -9
BOSCOBEL       SUNNY      8  -3  61 W8        30.17R WCI  -4
LONE ROCK      NOT AVBL
PLATTEVILLE    MOSUNNY    7   0  72 W10       30.12R WCI  -8
FORT MC COY    SUNNY      6  -4  64 W6        30.13R WCI  -5
VIROQUA        FAIR       4  -4  71 NW9       30.09R WCI -11
WIS DELLS      NOT AVBL
$$

...ELSEWHERE IN WISCONSIN...


CITY           SKY/WX    TMP DP  RH WIND       PRES   REMARKS
MILWAUKEE      PTSUNNY   14   0  53 NW16      30.05R WCI  -2
MADISON        PTSUNNY   11  -1  58 NW10      30.09R WCI  -3
GREEN BAY      SUNNY      8  -3  61 W16       30.03R WCI -10
EAU CLAIRE     SUNNY      0  -9  65 W10       30.14R WCI -16
BLACK RVR FLS  FAIR       5  -6  61 NW8       30.13R WCI  -8
MEDFORD        SUNNY     -2  -8  75 W10       30.00R WCI -19
WAUSAU         SUNNY      0  -9  65 W10       30.01R WCI -16
WIS RAPIDS     SUNNY      3  -7  63 NW17      30.09R WCI -17
MARSHFIELD     SUNNY      1  -7  68 W14       30.05R WCI -17
RICE LAKE      SUNNY     -4 -10  73 W7        30.12R WCI -18
$$

...NORTHEAST IOWA...


CITY           SKY/WX    TMP DP  RH WIND       PRES   REMARKS
DECORAH        MOSUNNY    3  -6  66 NW8G16    30.14R WCI -10
MASON CITY     SUNNY     -1  -8  72 W9        30.21R WCI -16
CHARLES CITY   SUNNY      3  -6  66 NW9       30.19R WCI -11
OELWEIN        MOSUNNY    5  -4  66 NW22      30.17R WCI -16
$$

...ELSEWHERE IN IOWA...


CITY           SKY/WX    TMP DP  RH WIND       PRES   REMARKS
DES MOINES     MOSUNNY   13  -2  51 N12       30.25R WCI  -1
IOWA CITY      MOSUNNY   11   0  61 NW18      30.22R WCI  -7
FORT DODGE     SUNNY      9  -2  61 CALM      30.23R
$$

...NORTHERN ILLINOIS...


CITY           SKY/WX    TMP DP  RH WIND       PRES   REMARKS
CHICAGO-OHARE  PTSUNNY   17  10  74 NW10      30.04R WCI   5
CHICAGO-MIDWAY PTSUNNY   20  12  71 NW16      30.04R WCI   6
MOLINE         CLOUDY    13   1  59 NW15      30.17R WCI  -3
ROCKFORD       CLOUDY    14   2  58 NW20      30.10R WCI  -3
PEORIA         CLOUDY    14   3  61 NW10G17   30.16R WCI   1
$$

NOTE: "FAIR" INDICATES FEW OR NO CLOUDS BELOW 12,000 FEET WITH NO
SIGNIFICANT WEATHER AND/OR OBSTRUCTIONS TO VISIBILITY. WIND
SPEEDS ARE IN MILES-PER-HOUR.



USA.gov is the U.S. government's official web portal to all federal, state and local government web resources and services.